Hourly Data Report for October 31, 2014

All times are specified in Local Standard Time (LST). Add 1 hour to adjust for Daylight Saving Time where and when it is observed.

TORONTO INTL A
ONTARIO

43°40'36.000" N
79°37'50.000" W
173.40 m
6158731
71624
YYZ

Download Data

Hourly Data (October 2014)
Hourly Data Report for October 31, 2014
Temp Definition
°C
Dew Point Temp Definition
°C
Rel Hum Definition
%
Wind Dir Definition
10's deg

Wind Spd Definition
km/h
Visibility Definition
km
Stn Press Definition
kPa
Hmdx Definition


Wind Chill Definition


Weather Definition


TIME
00:00 Legend Double Dagger 6.3 1.6 72 36 1 24.1 99.53     LegendNANA
01:00 Legend Double Dagger 6.4 1.9 73 13 4 24.1 99.49     Cloudy
02:00 Legend Double Dagger 5.6 3.3 85 26 7 19.3 99.46     Rain Showers
03:00 Legend Double Dagger 6.0 2.8 80 36 1 19.3 99.43     Rain Showers
04:00 Legend Double Dagger 5.9 3.4 84 8 5 19.3 99.39     Rain Showers
05:00 Legend Double Dagger 5.8 3.7 86 11 8 16.1 99.37     Rain Showers
06:00 Legend Double Dagger 6.2 4.2 87 12 8 16.1 99.35     Rain
07:00 Legend Double Dagger 5.9 3.8 86 15 9 19.3 99.35     Rain
08:00 Legend Double Dagger 5.7 4.0 89 15 9 9.7 99.38     Rain
09:00 Legend Double Dagger 5.9 4.6 91 14 10 9.7 99.36     Rain
10:00 Legend Double Dagger 6.3 4.5 88 15 10 9.7 99.31     Rain
11:00 Legend Double Dagger 6.2 4.5 89 11 11 9.7 99.30     Rain
12:00 Legend Double Dagger 6.2 4.9 91 8 13 9.7 99.25     Rain
13:00 Legend Double Dagger 6.7 5.3 91 9 12 9.7 99.20     Rain
14:00 Legend Double Dagger 6.8 5.0 88 9 10 16.1 99.18     Rain
15:00 Legend Double Dagger 6.5 5.1 91 9 11 9.7 99.20     Rain
16:00 Legend Double Dagger 6.3 5.3 93 5 13 9.7 99.23     Rain
17:00 Legend Double Dagger 6.5 5.5 93 7 13 8.1 99.27     Rain
18:00 Legend Double Dagger 5.9 4.9 93 6 14 9.7 99.36     Rain
19:00 Legend Double Dagger 5.4 4.4 93 5 20 12.9 99.45     Rain
20:00 Legend Double Dagger 4.4 3.2 92 3 27 11.3 99.51     Rain
21:00 Legend Double Dagger 3.2 2.0 92 1 24 19.3 99.57     Rain
22:00 Legend Double Dagger 1.9 0.7 92 1 28 14.5 99.65     Rain
23:00 Legend Double Dagger 1.3 0.4 94 1 25 8.1 99.69     Snow

Notes on Data Quality.

Legend

  • E = Estimated
  • M = Missing
  • NA = Not Available
  • ‡ = Partner data that is not subject to review by the National Climate Archives
Date modified: